London-Corbin, KY

8:48 PM EDT on September 19, 2017 (GMT -0400)
London-Corbin / McKee

Weather History for KLOZ - March, 2013

Change the Weather History Date:

Thursday, March 7, 2013

  Actual Average Record
Temperature  
Mean Temperature 31 °F 45 °F  
Max Temperature 33 °F 56 °F 82 °F (1974)
Min Temperature 29 °F 34 °F 7 °F (1960)
Degree Days  
Heating Degree Days 34 20  
Month to date heating degree days 230 147  
Since 1 July heating degree days 3578 3423  
Cooling Degree Days 0 0  
Month to date cooling degree days 0 0  
Year to date cooling degree days 0 0  
Moisture  
Dew Point 26 °F    
Average Humidity 81    
Maximum Humidity 92    
Minimum Humidity 69    
Precipitation  
Precipitation T in 0.14 in 1.19 in (1956)
Month to date precipitation 1.74 0.94  
Year to date precipitation 8.53  
Sea Level Pressure  
Sea Level Pressure 30.33 in    
Wind  
Wind Speed 4 mph (NNW)    
Max Wind Speed 8 mph    
Max Gust Speed 10 mph    
Visibility 10 miles    
Events      
T = Trace of Precipitation, MM = Missing Value Source: NWS Daily Summary

Daily Weather History Graph

Daily Weather History Graph

Search for Another Location

Airport or City:

Trip Planner

Search our weather history database for the weather conditions in past years. The results will help you decide how hot, cold, wet, or windy it might be!

Date:

Astronomy

Mar. 07, 2013 Rise Set
Actual Time 6:58 AM EST 6:36 PM EST
Civil Twilight 6:32 AM EST 7:02 PM EST
Nautical Twilight 6:02 AM EST 7:32 PM EST
Astronomical Twilight 5:32 AM EST 8:02 PM EST
Moon 3:52 AM EST (3/7) 2:27 PM EST (3/7)
Length of Visible Light 12h 29m
Length of Day
11h 37m
Waning Crescent, 20% of the Moon is Illuminated
Mar 7
Waning Crescent
Mar 11
New
Mar 19
First Quarter
Mar 27
Full
Apr 3
Last Quarter

Hourly Weather History & Observations

Time (EST) Temp. Windchill Dew Point Humidity Pressure Visibility Wind Dir Wind Speed Gust Speed Precip Events Conditions
12:45 AM 30.2 °F 23.4 °F 26.6 °F 86% 30.23 in 10.0 mi NW 6.9 mph - N/A   Overcast
12:53 AM 30.0 °F 23.2 °F 27.0 °F 88% 30.27 in 10.0 mi NW 6.9 mph - N/A   Overcast
1:02 AM 30.2 °F 24.3 °F 26.6 °F 86% 30.23 in 9.0 mi NNW 5.8 mph - N/A   Overcast
1:53 AM 30.0 °F 25.2 °F 27.0 °F 88% 30.28 in 10.0 mi NNW 4.6 mph - N/A   Overcast
2:18 AM 30.2 °F 24.3 °F 26.6 °F 86% 30.25 in 10.0 mi NW 5.8 mph - N/A   Overcast
2:39 AM 30.2 °F 26.7 °F 26.6 °F 86% 30.24 in 10.0 mi NW 3.5 mph - N/A   Overcast
2:48 AM 30.2 °F 25.4 °F 26.6 °F 86% 30.24 in 10.0 mi WNW 4.6 mph - N/A   Overcast
2:53 AM 28.9 °F 25.2 °F 27.0 °F 92% 30.27 in 10.0 mi NW 3.5 mph - N/A   Overcast
3:53 AM 28.9 °F 25.2 °F 26.1 °F 89% 30.30 in 10.0 mi WNW 3.5 mph - N/A   Overcast
4:53 AM 28.9 °F 23.9 °F 25.0 °F 85% 30.31 in 10.0 mi NW 4.6 mph - N/A   Overcast
5:03 AM 28.4 °F 24.6 °F 24.8 °F 86% 30.28 in 10.0 mi NNW 3.5 mph - N/A   Overcast
5:53 AM 28.9 °F 23.9 °F 26.1 °F 89% 30.32 in 9.0 mi NNW 4.6 mph - N/A   Overcast
6:53 AM 28.9 °F 23.9 °F 25.0 °F 85% 30.35 in 10.0 mi North 4.6 mph - 0.00 in   Overcast
7:18 AM 28.4 °F 24.6 °F 24.8 °F 86% 30.31 in 10.0 mi North 3.5 mph - N/A   Overcast
7:53 AM 28.9 °F 25.2 °F 25.0 °F 85% 30.35 in 9.0 mi NNW 3.5 mph - N/A   Overcast
8:53 AM 30.0 °F 26.5 °F 25.0 °F 82% 30.37 in 9.0 mi NNW 3.5 mph - N/A   Overcast
9:53 AM 30.0 °F 26.5 °F 25.0 °F 82% 30.38 in 9.0 mi North 3.5 mph - N/A   Overcast
10:53 AM 30.9 °F - 25.0 °F 79% 30.38 in 10.0 mi Calm Calm - N/A   Overcast
11:53 AM 30.9 °F 26.2 °F 25.0 °F 79% 30.38 in 10.0 mi NNW 4.6 mph - N/A   Overcast
12:53 PM 32.0 °F 27.5 °F 25.0 °F 75% 30.38 in 10.0 mi North 4.6 mph - N/A   Overcast
1:53 PM 32.0 °F - 25.0 °F 75% 30.35 in 10.0 mi Calm Calm - N/A   Overcast
2:53 PM 33.1 °F 28.7 °F 25.0 °F 72% 30.35 in 10.0 mi NNW 4.6 mph - N/A   Overcast
3:53 PM 33.1 °F - 26.1 °F 75% 30.36 in 10.0 mi Calm Calm - N/A   Overcast
4:53 PM 33.1 °F 28.7 °F 26.1 °F 75% 30.35 in 10.0 mi NE 4.6 mph - N/A   Overcast
5:53 PM 33.1 °F 28.7 °F 25.0 °F 72% 30.36 in 10.0 mi NNE 4.6 mph - N/A   Overcast
6:53 PM 32.0 °F 27.5 °F 25.0 °F 75% 30.38 in 10.0 mi NNE 4.6 mph - N/A   Overcast
7:53 PM 32.0 °F 27.5 °F 25.0 °F 75% 30.38 in 10.0 mi NE 4.6 mph - N/A   Overcast
8:53 PM 32.0 °F 27.5 °F 25.0 °F 75% 30.39 in 10.0 mi NNE 4.6 mph - N/A   Overcast
9:53 PM 32.0 °F - 25.0 °F 75% 30.39 in 10.0 mi Calm Calm - N/A   Overcast
10:53 PM 32.0 °F 26.4 °F 24.1 °F 73% 30.39 in 10.0 mi NE 5.8 mph - N/A   Overcast
11:53 PM 30.9 °F 25.2 °F 24.1 °F 76% 30.38 in 10.0 mi NNE 5.8 mph - N/A   Overcast